Weather History for Scappoose, OR

Change the Weather History Date:

Sunday, September 22, 2013

  Actual Average Record
Temperature  
Mean Temperature 57 °F -  
Max Temperature 61 °F - 87 °F (2001)
Min Temperature 52 °F - 37 °F (2000)
Degree Days  
Heating Degree Days 8    
Month to date heating degree days 39  
Since 1 July heating degree days 63  
Cooling Degree Days 0    
Month to date cooling degree days 72  
Year to date cooling degree days 396  
Growing Degree Days 7 (Base 50)    
Moisture  
Dew Point 53 °F    
Average Humidity 84    
Maximum Humidity 93    
Minimum Humidity 75    
Precipitation  
Precipitation 0.37 in - 0.37 in (2013)
Month to date precipitation 2.67  
Year to date precipitation 17.21  
Sea Level Pressure  
Sea Level Pressure 29.73 in    
Wind  
Wind Speed 5 mph (SSE)    
Max Wind Speed 17 mph    
Max Gust Speed 26 mph    
Visibility 8 miles    
Events Rain    
T = Trace of Precipitation, MM = Missing Value Source: NWS Daily Summary

Daily Weather History Graph

Daily Weather History Graph

Search for Another Location

Airport:

Trip Planner

Search our weather history database for the weather conditions in past years. The results will help you decide how hot, cold, wet, or windy it might be!

Date:

Astronomy

Sep. 22, 2013 Rise Set
Actual Time 6:58 AM PDT 7:08 PM PDT
Civil Twilight 6:29 AM PDT 7:37 PM PDT
Nautical Twilight 5:54 AM PDT 8:12 PM PDT
Astronomical Twilight 5:18 AM PDT 8:48 PM PDT
Moon 8:48 PM PDT (9/22) 10:37 AM PDT (9/22)
Length of Visible Light 13h 08m
Length of Day
12h 09m
Waning Gibbous, 88% of the Moon is Illuminated
Sep 22
Waning Gibbous
Sep 26
Last Quarter
Oct 4
New
Oct 11
First Quarter
Oct 18
Full

Hourly Weather History & Observations

Time (PDT) Temp. Dew Point Humidity Pressure Visibility Wind Dir Wind Speed Gust Speed Precip Events Conditions
12:02 AM 55.4 °F 53.6 °F 94% 29.77 in 10.0 mi Calm Calm - N/A   Overcast
12:14 AM 53.6 °F 51.8 °F 94% 29.76 in 10.0 mi Calm Calm - N/A   Overcast
12:25 AM 53.6 °F 51.8 °F 94% 29.77 in 10.0 mi Calm Calm - N/A   Overcast
12:53 AM 54.0 °F 52.0 °F 93% 29.77 in 10.0 mi West 3.5 mph - N/A   Overcast
1:02 AM 53.6 °F 51.8 °F 94% 29.77 in 10.0 mi SW 3.5 mph - N/A   Mostly Cloudy
1:53 AM 53.1 °F 51.1 °F 93% 29.78 in 10.0 mi Calm Calm - N/A   Mostly Cloudy
2:53 AM 55.0 °F 52.0 °F 89% 29.78 in 10.0 mi SSE 3.5 mph - N/A   Mostly Cloudy
3:53 AM 54.0 °F 52.0 °F 93% 29.77 in 10.0 mi Calm Calm - N/A   Overcast
4:53 AM 55.0 °F 52.0 °F 89% 29.77 in 10.0 mi SSE 3.5 mph - N/A   Scattered Clouds
5:05 AM 55.4 °F 51.8 °F 88% 29.76 in 10.0 mi South 5.8 mph - N/A   Mostly Cloudy
5:25 AM 55.4 °F 51.8 °F 88% 29.76 in 10.0 mi South 4.6 mph - N/A   Scattered Clouds
5:38 AM 55.4 °F 51.8 °F 88% 29.76 in 10.0 mi SSE 10.4 mph - N/A   Mostly Cloudy
5:53 AM 55.9 °F 52.0 °F 87% 29.76 in 10.0 mi SSE 8.1 mph - N/A   Overcast
6:00 AM 55.4 °F 51.8 °F 88% 29.76 in 10.0 mi SSE 6.9 mph - N/A   Overcast
6:53 AM 55.9 °F 53.1 °F 90% 29.76 in 10.0 mi SSE 4.6 mph - 0.00 in Rain Light Rain
7:21 AM 55.4 °F 51.8 °F 88% 29.76 in 10.0 mi SSE 5.8 mph - 0.00 in Rain Light Rain
7:53 AM 55.9 °F 53.1 °F 90% 29.76 in 10.0 mi SSE 4.6 mph - 0.01 in Rain Light Rain
8:00 AM 55.4 °F 51.8 °F 88% 29.76 in 10.0 mi South 6.9 mph - 0.00 in Rain Light Rain
8:34 AM 55.4 °F 51.8 °F 88% 29.75 in 10.0 mi SSE 8.1 mph - 0.00 in Rain Light Rain
8:53 AM 57.0 °F 52.0 °F 83% 29.74 in 10.0 mi SSE 10.4 mph 18.4 mph 0.00 in   Overcast
9:53 AM 57.0 °F 52.0 °F 83% 29.73 in 10.0 mi SSE 11.5 mph 19.6 mph N/A   Overcast
10:41 AM 59.0 °F 51.8 °F 77% 29.71 in 10.0 mi South 11.5 mph 18.4 mph N/A   Overcast
10:53 AM 59.0 °F 52.0 °F 78% 29.70 in 10.0 mi South 10.4 mph 17.3 mph N/A   Overcast
11:17 AM 60.8 °F 51.8 °F 72% 29.69 in 10.0 mi South 10.4 mph 20.7 mph N/A   Overcast
11:53 AM 59.0 °F 51.1 °F 75% 29.67 in 10.0 mi South 6.9 mph 27.6 mph 0.00 in Rain Light Rain
12:49 PM 55.4 °F 51.8 °F 88% 29.67 in 2.5 mi South 5.8 mph 26.5 mph 0.11 in Rain Rain
12:53 PM 57.0 °F 53.1 °F 87% 29.67 in 3.0 mi South 4.6 mph 17.3 mph 0.12 in Rain Light Rain
1:33 PM 57.2 °F 53.6 °F 88% 29.66 in 10.0 mi South 13.8 mph 23.0 mph 0.03 in Rain Light Rain
1:53 PM 57.9 °F 54.0 °F 87% 29.66 in 3.0 mi South 8.1 mph 18.4 mph 0.06 in Rain Light Rain
2:20 PM 57.2 °F 53.6 °F 88% 29.67 in 2.5 mi Variable 6.9 mph 17.3 mph 0.05 in Rain Light Rain
2:29 PM 57.2 °F 53.6 °F 88% 29.68 in 3.0 mi Variable 5.8 mph 17.3 mph 0.06 in Rain Light Rain
2:53 PM 57.0 °F 54.0 °F 89% 29.68 in 3.0 mi Variable 6.9 mph - 0.08 in Rain Light Rain
3:01 PM 57.2 °F 53.6 °F 88% 29.68 in 2.0 mi Calm Calm - 0.02 in Rain Rain
3:10 PM 57.2 °F 53.6 °F 88% 29.68 in 4.0 mi SSE 3.5 mph - 0.03 in Rain Light Rain
3:20 PM 57.2 °F 53.6 °F 88% 29.68 in 5.0 mi SSE 5.8 mph - 0.03 in Rain Light Rain
3:41 PM 57.2 °F 55.4 °F 94% 29.69 in 2.5 mi South 3.5 mph - 0.04 in Rain Light Rain
3:53 PM 57.0 °F 55.0 °F 93% 29.69 in 2.0 mi SE 3.5 mph - 0.06 in Rain Light Rain
4:00 PM 57.2 °F 55.4 °F 94% 29.69 in 3.0 mi Calm Calm - 0.00 in Rain Light Rain
4:10 PM 57.2 °F 55.4 °F 94% 29.70 in 2.0 mi Calm Calm - 0.02 in Rain Light Rain
4:18 PM 57.2 °F 55.4 °F 94% 29.69 in 3.0 mi SE 6.9 mph - 0.03 in Rain Rain
4:53 PM 59.0 °F 55.0 °F 87% 29.70 in 10.0 mi Calm Calm - 0.03 in   Mostly Cloudy
5:53 PM 61.0 °F 55.9 °F 83% 29.71 in 10.0 mi SSE 3.5 mph - N/A   Partly Cloudy
6:53 PM 59.0 °F 55.0 °F 87% 29.75 in 10.0 mi Calm Calm - N/A   Overcast
7:53 PM 57.0 °F 55.0 °F 93% 29.76 in 10.0 mi Calm Calm - N/A   Overcast
8:53 PM 57.0 °F 54.0 °F 89% 29.79 in 10.0 mi SSW 6.9 mph - 0.00 in   Overcast
9:53 PM 55.0 °F 52.0 °F 89% 29.81 in 10.0 mi South 4.6 mph - 0.00 in   Partly Cloudy
10:53 PM 55.9 °F 52.0 °F 87% 29.83 in 10.0 mi SSW 5.8 mph - N/A   Clear
11:53 PM 55.0 °F 52.0 °F 89% 29.85 in 10.0 mi South 3.5 mph - N/A   Clear